This is the latest recevied weather packets stored in our database for station/object DL3MEB-6. If no packets are shown the sender has not sent any weather packets the latest 10 day(s).
| Time | Temp. | Humidity | Pressure | Rain* | Wind** | Luminosity | Snow |
|---|---|---|---|---|---|---|---|
| 1777650452 | 23.89° C | 27% | 1024.4 hPa | 0 mm | - | - | - |
| 1777649552 | 23.89° C | 27% | 1024.5 hPa | 0 mm | - | - | - |
| 1777648648 | 23.89° C | 26% | 1024.8 hPa | 0 mm | - | - | - |
| 1777647738 | 23.33° C | 26% | 1024.7 hPa | 0 mm | - | - | - |
| 1777646827 | 23.33° C | 25% | 1024.7 hPa | 0 mm | - | - | - |
| 1777645920 | 23.33° C | 26% | 1024.7 hPa | 0 mm | - | - | - |
| 1777645021 | 22.78° C | 26% | 1024.8 hPa | 0 mm | - | - | - |
| 1777644109 | 22.78° C | 26% | 1024.9 hPa | 0 mm | - | - | - |
| 1777643193 | 22.78° C | 27% | 1025.1 hPa | 0 mm | - | - | - |
| 1777642283 | 22.78° C | 26% | 1025.3 hPa | 0 mm | - | - | - |
| 1777641376 | 22.78° C | 28% | 1025.4 hPa | 0 mm | - | - | - |
| 1777640472 | 22.22° C | 27% | 1025.6 hPa | 0 mm | - | - | - |
| 1777638664 | 21.67° C | 27% | 1025.9 hPa | 0 mm | - | - | - |
| 1777637752 | 21.11° C | 28% | 1025.9 hPa | 0 mm | - | - | - |
| 1777636848 | 21.11° C | 25% | 1026.1 hPa | 0 mm | - | - | - |
| 1777635947 | 21.11° C | 26% | 1026.2 hPa | 0 mm | - | - | - |
| 1777635042 | 20.56° C | 27% | 1026.4 hPa | 0 mm | - | - | - |
| 1777634135 | 20° C | 27% | 1026.3 hPa | 0 mm | - | - | - |
| 1777633226 | 19.44° C | 27% | 1026.5 hPa | 0 mm | - | - | - |
| 1777632315 | 18.89° C | 31% | 1026.7 hPa | 0 mm | - | - | - |
| 1777631415 | 18.89° C | 31% | 1026.9 hPa | 0 mm | - | - | - |
| 1777630514 | 18.33° C | 33% | 1027 hPa | 0 mm | - | - | - |
| 1777629610 | 17.22° C | 30% | 1027 hPa | 0 mm | - | - | - |
| 1777628703 | 16.67° C | 34% | 1027.1 hPa | 0 mm | - | - | - |
| 1777627793 | 16.11° C | 33% | 1027.2 hPa | 0 mm | - | - | - |
* Rain latest hour (hover to see other rain measurements)
** Current wind speed in m/s (hover to see current wind gust speed)